GBOYI EGCM-EGCM

Flight info

Callsign GBOYI
Flight time N/A
Altitude 14000
Route UPTON DCT KIM DCT VUSFO
Aircraft P28A/L-SDGRY/S

Departure

Time 2026-04-20 14:36
Airport Leeds East Airport (EGCM)

Arrival

Time N/A
Airport Leeds East Airport (EGCM)
Time Latitude Longitude Altitude Speed Heading
2026-04-20 14:33 53.83382 -1.20370 33 ft 0 kts 320°
2026-04-20 14:33 53.83384 -1.20372 33 ft 4 kts 329°
2026-04-20 14:33 53.83432 -1.20252 33 ft 21 kts 80°
2026-04-20 14:34 53.83489 -1.19949 33 ft 33 kts 47°
2026-04-20 14:34 53.83694 -1.19760 31 ft 31 kts 45°
2026-04-20 14:34 53.83687 -1.19423 33 ft 34 kts 141°
2026-04-20 14:34 53.83539 -1.19316 34 ft 15 kts 256°
2026-04-20 14:35 53.83463 -1.19516 32 ft 39 kts 235°
2026-04-20 14:35 53.83195 -1.20143 65 ft 84 kts 230°
2026-04-20 14:35 53.82814 -1.20981 253 ft 94 kts 229°
2026-04-20 14:35 53.82380 -1.21825 551 ft 87 kts 217°
2026-04-20 14:36 53.82170 -1.22713 766 ft 92 kts 286°
2026-04-20 14:36 53.82664 -1.23291 863 ft 97 kts
2026-04-20 14:36 53.83212 -1.23050 1237 ft 80 kts 33°
2026-04-20 14:36 53.83692 -1.22451 1374 ft 86 kts 40°
2026-04-20 14:37 53.84181 -1.21863 1432 ft 86 kts 39°
2026-04-20 14:37 53.84706 -1.21310 1394 ft 92 kts 31°
2026-04-20 14:37 53.85279 -1.20903 1444 ft 90 kts 22°
2026-04-20 14:37 53.85927 -1.20782 1452 ft 95 kts
2026-04-20 14:38 53.86582 -1.20811 1516 ft 95 kts
2026-04-20 14:38 53.87246 -1.20947 1559 ft 98 kts 353°
2026-04-20 14:38 53.87913 -1.21040 1590 ft 93 kts 20°
2026-04-20 14:38 53.88285 -1.20303 1539 ft 85 kts 81°
2026-04-20 14:39 53.88180 -1.19301 1417 ft 89 kts 103°
2026-04-20 14:39 53.88004 -1.18340 1374 ft 83 kts 104°
2026-04-20 14:39 53.87805 -1.17406 1276 ft 85 kts 108°
2026-04-20 14:39 53.87573 -1.16485 1254 ft 85 kts 109°
2026-04-20 14:40 53.87303 -1.15591 1235 ft 86 kts 115°
2026-04-20 14:40 53.86997 -1.14736 1157 ft 79 kts 117°
2026-04-20 14:40 53.86532 -1.14201 1103 ft 91 kts 163°
2026-04-20 14:40 53.85868 -1.14447 933 ft 101 kts 202°
2026-04-20 14:41 53.85494 -1.14833 769 ft 93 kts 213°
2026-04-20 14:41 53.85087 -1.15649 557 ft 88 kts 233°
2026-04-20 14:41 53.84768 -1.16397 367 ft 74 kts 231°
2026-04-20 14:41 53.84477 -1.17110 281 ft 78 kts 232°
2026-04-20 14:42 53.84161 -1.17861 146 ft 81 kts 238°
2026-04-20 14:42 53.83848 -1.18601 48 ft 77 kts 230°
2026-04-20 14:42 53.83572 -1.19254 35 ft 58 kts 234°
2026-04-20 14:42 53.83277 -1.19921 158 ft 77 kts 230°
2026-04-20 14:43 53.82954 -1.20675 413 ft 75 kts 243°
2026-04-20 14:43 53.82676 -1.21369 718 ft 73 kts 244°
2026-04-20 14:43 53.82356 -1.22083 960 ft 76 kts 247°
2026-04-20 14:43 53.82115 -1.22928 1030 ft 78 kts 266°
2026-04-20 14:44 53.82269 -1.23793 1175 ft 80 kts 308°
2026-04-20 14:44 53.82708 -1.24399 1314 ft 87 kts 328°
2026-04-20 14:44 53.83357 -1.24454 1404 ft 102 kts 358°
2026-04-20 14:44 53.84031 -1.24132 1457 ft 101 kts
2026-04-20 14:45 53.84716 -1.23672 1334 ft 113 kts 21°
2026-04-20 14:45 53.85374 -1.22934 1314 ft 114 kts 32°
2026-04-20 14:45 53.86016 -1.22115 1277 ft 113 kts 32°
2026-04-20 14:45 53.86635 -1.21317 1315 ft 112 kts 33°
2026-04-20 14:46 53.87227 -1.20435 1314 ft 118 kts 51°
2026-04-20 14:46 53.87533 -1.19367 1288 ft 119 kts 65°
2026-04-20 14:49 53.87588 -1.19129 1278 ft 120 kts 67°
2026-04-20 14:49 53.87745 -1.17789 1368 ft 109 kts 101°
2026-04-20 14:49 53.87351 -1.16707 1358 ft 112 kts 134°
2026-04-20 14:49 53.86796 -1.15869 1412 ft 104 kts 148°
2026-04-20 14:50 53.86209 -1.15341 1446 ft 84 kts 178°
2026-04-20 14:50 53.85946 -1.15300 1250 ft 81 kts 186°
2026-04-20 14:50 53.85781 -1.15267 1131 ft 98 kts 216°
2026-04-20 14:51 53.85353 -1.15216 901 ft 101 kts 226°
2026-04-20 14:51 53.85106 -1.15370 762 ft 72 kts 242°
2026-04-20 14:51 53.84989 -1.15670 672 ft 69 kts 265°
2026-04-20 14:52 53.84783 -1.16295 505 ft 71 kts 243°
2026-04-20 14:52 53.84506 -1.16973 309 ft 67 kts 250°
2026-04-20 14:52 53.84251 -1.17599 211 ft 66 kts 247°
2026-04-20 14:52 53.83992 -1.18238 88 ft 65 kts 251°